Home > Weather > Sydney > Past weeks

Flag for Australia Weather for the Past 2 Weeks in Sydney, New South Wales, Australia

Now
75 °F

Partly sunny.


Feels Like: 77 °F
Forecast: 53 / 70 °F
Wind: 18 mph from North

Location: Sydney Airport

Current Time: May 1, 2016 at 1:24:03 PM

Latest Report: May 1, 2016 at 12:30 PM


Visibility: N/A

Pressure: 29.83 "Hg

Humidity: 61%

Dew Point: 61 °F

Location of SydneyLocation

Historic Weather in Sydney — Graph

°F

Sydney Temperature Yesterday

Maximum temperature yesterday: 81 °F (at 2:30 PM)
Minimum temperature yesterday: 66 °F (at 12:30 AM)
Average temperature yesterday: 72 °F

High & Low Weather Summary for the Past Weeks

 TemperatureHumidityPressure
High81 °F (Apr 16, 1:30 PM)100% (Apr 18, 11:30 PM)30.45 "Hg (Apr 18, 11:30 PM)
Low55 °F (Apr 25, 4:00 AM)39% (Apr 16, 2:00 PM)29.86 "Hg (May 1, 12:00 PM)
Average67 °F77%30.19 "Hg
* Reported Apr 16 12:00 Noon — May 1 12:00 Noon, Sydney, Weather by CustomWeather, © 2016

Note: Actual official high and low records may vary slightly from our data, if they occured in-between our weather recording intervals... More about our weather records

Advertising

Sydney Weather History for the Previous 24 Hours

Scroll right to see more
 ConditionsComfort  
Time TempWeatherWind HumidityBarometerVisibility
12:00 PM
Sun, May 1
73 °FPartly sunny.17 mph65%29.86 "HgN/A
11:30 AM73 °FPartly sunny.18 mph69%29.89 "HgN/A
11:00 AM72 °FPartly sunny.18 mph73%29.89 "HgN/A
10:30 AM72 °FPartly sunny.18 mph73%29.89 "HgN/A
10:00 AM70 °FBroken clouds.15 mph78%29.89 "HgN/A
9:30 AM70 °FPartly sunny.16 mph83%29.92 "HgN/A
9:00 AM68 °FBroken clouds.18 mph88%29.89 "HgN/A
8:30 AM66 °FScattered showers. Broken clouds.17 mph94%29.92 "HgN/A
8:00 AM66 °FLight rain. Clear.15 mph94%29.92 "HgN/A
7:30 AM66 °FLight rain. Clear.13 mph88%29.95 "HgN/A
6:30 AM64 °FLight rain. Clear.14 mph88%29.92 "Hg5 mi
6:00 AM64 °FSprinkles. Clear.15 mph88%29.92 "HgN/A
5:30 AM64 °FSunny.12 mph88%29.89 "Hg10 mi
5:00 AM64 °FClear.8 mph88%29.89 "Hg10 mi
4:00 AM64 °FClear.6 mph88%29.89 "Hg10 mi
3:30 AM64 °FClear.7 mph88%29.89 "Hg10 mi
3:00 AM66 °FClear.7 mph83%29.89 "Hg10 mi
2:00 AM66 °FClear.7 mph88%29.92 "Hg10 mi
1:30 AM66 °FClear.6 mph88%29.95 "Hg10 mi
1:00 AM66 °FClear.3 mph88%29.95 "Hg10 mi
12:30 AM66 °FClear.6 mph88%29.95 "Hg10 mi
12:00 AM68 °FClear.3 mph83%29.95 "Hg10 mi
11:30 PM
Sat, Apr 30
70 °FClear.7 mph78%29.98 "Hg10 mi
11:00 PM70 °FClear.8 mph78%29.98 "Hg10 mi
10:30 PM70 °FClear.7 mph78%29.98 "Hg10 mi
10:00 PM72 °FClear.7 mph73%30.01 "Hg10 mi
9:30 PM72 °FClear.7 mph73%30.01 "Hg10 mi
9:00 PM72 °FClear.8 mph73%30.01 "Hg10 mi
8:30 PM72 °FClear.10 mph78%30.01 "Hg10 mi
8:00 PM72 °FClear.8 mph78%30.01 "Hg10 mi
7:30 PM73 °FClear.8 mph69%30.01 "Hg10 mi
7:00 PM73 °FClear.8 mph69%30.01 "Hg10 mi
6:00 PM77 °FClear.9 mph57%29.98 "Hg10 mi
5:30 PM77 °FClear.9 mph57%29.98 "Hg10 mi
5:00 PM77 °FClear.8 mph57%29.98 "Hg10 mi
4:30 PM79 °FClear.7 mph51%29.98 "Hg10 mi
4:00 PM79 °FPassing clouds.7 mph51%29.98 "HgN/A
3:00 PM81 °FPartly sunny.6 mph51%29.98 "HgN/A
2:30 PM81 °FSunny.8 mph48%29.98 "Hg10 mi
2:00 PM79 °FSunny.10 mph51%29.98 "Hg10 mi
1:00 PM79 °FSunny.13 mph51%29.98 "Hg10 mi
Weather by CustomWeather, © 2016

See weather overviewHow to use our weather pages